Flag for U.S.A. Weather past 2 weeks in Vista, California, U.S.A.

Now
61 °F

Mostly cloudy.


Feels Like: 61 °F
Forecast: 55 / 63 °F
Wind: 8 mph from West

Location: McClellan-Palomar Airport

Current Time: Feb 27, 2015 at 6:18:53 PM

Latest Report: Feb 27, 2015 at 5:53 PM


Visibility: 10 mi

Pressure: 29.76 "Hg

Humidity: 75%

Dew point: 53 °F

Location of VistaLocation

Historic Weather in Vista — Graph

°F

Vista temperature yesterday

Maximum temperature yesterday: 64 °F (at 10:53 AM)
Minimum temperature yesterday: 47 °F (at 5:53 AM)
Average temperature yesterday: 56 °F

Past Weeks' High & Low Weather Summary

 TemperatureHumidityPressure
High81 °F (Feb 13, 10:53 AM)100% (Feb 16, 6:53 AM)30.22 "Hg (Feb 16, 6:53 AM)
Low47 °F (Feb 26, 5:53 AM)13% (Feb 13, 10:53 AM)29.76 "Hg (Feb 27, 3:53 PM)
Average61 °F64%30.00 "Hg
* Reported Feb 12 5:53 PM — Feb 27 5:00 PM, Vista, Weather by CustomWeather, © 2015

Note: Actual official high and low records may vary slightly from our data, if they occured in-between our weather recording intervals... More about our weather records

Advertising

Vista weather history for previous 24 hours

 ConditionsComfort  
Time TempWeatherWind HumidityBarometerVisibility
5:00 PM
Fri, Feb 27
62 °FCloudy.9 mph70%29.77 "Hg10 mi
3:53 PM63 °FMostly cloudy.10 mph68%29.76 "Hg10 mi
2:53 PM63 °FMore clouds than sun.14 mph68%29.77 "Hg10 mi
1:53 PM64 °FScattered clouds.16 mph63%29.77 "Hg10 mi
12:53 PM63 °FMostly cloudy.14 mph65%29.80 "Hg10 mi
11:53 AM63 °FMostly cloudy.18 mph68%29.82 "Hg10 mi
10:53 AM64 °FOvercast.14 mph61%29.84 "Hg10 mi
9:53 AM63 °FBroken clouds.9 mph60%29.85 "Hg10 mi
8:53 AM60 °FOvercast.10 mph67%29.85 "Hg10 mi
7:53 AM58 °FMore clouds than sun.6 mph70%29.83 "Hg10 mi
6:53 AM56 °FOvercast.6 mph77%29.84 "Hg10 mi
5:53 AM55 °FOvercast.3 mph83%29.83 "Hg10 mi
4:53 AM55 °FOvercast.3 mph83%29.81 "Hg10 mi
3:53 AM55 °FOvercast.6 mph83%29.81 "Hg10 mi
2:53 AM56 °FOvercast.3 mph84%29.82 "Hg10 mi
1:53 AM56 °FOvercast.3 mph81%29.83 "Hg10 mi
12:53 AM54 °FOvercast.3 mph83%29.84 "Hg10 mi
11:53 PM
Thu, Feb 26
53 °FClear.No wind86%29.83 "Hg10 mi
10:53 PM55 °FClear.No wind83%29.84 "Hg10 mi
9:53 PM56 °FClear.3 mph81%29.85 "Hg10 mi
8:53 PM57 °FClear.3 mph81%29.85 "Hg10 mi
7:53 PM57 °FClear.No wind81%29.86 "Hg10 mi
6:53 PM59 °FClear.No wind78%29.85 "Hg10 mi
Weather by CustomWeather, © 2015

See weather overviewHow to use our weather pages